Flag for Germany Weather past 2 weeks in Augsburg, Bavaria, Germany

Now
66 °F

Passing clouds.


Feels Like: 66 °F
Forecast: 62 / 81 °F
Wind: 6 mph from East

Location: Augsburg Airport

Current Time: Aug 1, 2014 at 9:50:53 AM

Latest Report: Aug 1, 2014 at 9:20 AM


Visibility: N/A

Pressure: 29.95 "Hg

Humidity: 78%

Dew point: 59 °F

Location of AugsburgLocation

Historic Weather in Augsburg — Graph

°F

Augsburg temperature yesterday

Maximum temperature yesterday: 73 °F (at 3:20 PM)
Minimum temperature yesterday: 63 °F (at 5:50 AM)
Average temperature yesterday: 69 °F

Past Weeks' High & Low Weather Summary

 TemperatureHumidityPressure
High91 °F (Jul 19, 5:20 PM)100% (Jul 18, 6:50 AM)30.21 "Hg (Jul 18, 6:50 AM)
Low52 °F (Aug 1, 6:20 AM)22% (Jul 19, 4:50 PM)29.77 "Hg (Jul 29, 2:50 PM)
Average71 °F69%29.95 "Hg
* Reported Jul 17 8:20 AM — Aug 1 8:20 AM, Augsburg, Weather by CustomWeather, © 2014

Note: Actual official high and low records may vary slightly from our data, if they occured in-between our weather recording intervals... More about our weather records

Advertising

Augsburg weather history for previous 24 hours

 ConditionsComfort  
Time TempWeatherWind HumidityBarometerVisibility
8:20 AM
Aug 1
63 °FSunny.2 mph94%29.95 "Hg10 mi
7:50 AM61 °FSunny.1 mph94%29.95 "Hg10 mi
7:20 AM57 °FSunny.1 mph100%29.95 "Hg10 mi
6:50 AM55 °FSunny.2 mph100%29.95 "Hg10 mi
6:20 AM52 °FClear.1 mph100%29.95 "Hg10 mi
8:50 PM
Jul 31
66 °FSunny.5 mph73%29.98 "Hg10 mi
8:20 PM70 °FSunny.5 mph64%29.98 "Hg10 mi
7:50 PM72 °FSunny.5 mph57%29.98 "Hg10 mi
7:20 PM70 °FSunny.5 mph60%29.98 "Hg10 mi
6:50 PM72 °FScattered clouds.1 mph61%29.98 "HgN/A
6:20 PM73 °FScattered clouds.2 mph47%29.98 "HgN/A
5:50 PM73 °FPassing clouds.6 mph50%30.01 "HgN/A
5:20 PM73 °FSunny.5 mph53%30.01 "Hg10 mi
4:50 PM73 °FSunny.2 mph50%30.01 "Hg10 mi
4:20 PM72 °FPartly sunny.3 mph53%30.01 "HgN/A
3:50 PM73 °FScattered clouds.3 mph50%30.01 "HgN/A
3:20 PM73 °FScattered clouds.5 mph50%30.01 "HgN/A
2:50 PM72 °FScattered clouds.3 mph53%30.01 "HgN/A
2:20 PM72 °FPassing clouds.3 mph53%30.01 "HgN/A
1:20 PM70 °FPassing clouds.3 mph60%30.01 "HgN/A
12:50 PM70 °FScattered clouds.5 mph57%30.01 "HgN/A
12:20 PM70 °FScattered clouds.5 mph60%30.04 "HgN/A
11:50 AM70 °FScattered clouds.7 mph60%30.04 "HgN/A
11:20 AM68 °FScattered clouds.7 mph64%30.04 "HgN/A
10:50 AM68 °FBroken clouds.6 mph69%30.04 "HgN/A
10:20 AM68 °FBroken clouds.7 mph78%30.04 "HgN/A
9:50 AM66 °FBroken clouds.8 mph83%30.04 "HgN/A
9:20 AM64 °FBroken clouds.8 mph88%30.01 "HgN/A
Weather by CustomWeather, © 2014

See weather overviewHow to use our weather pages